Radiation Dose at Monitoring Post of Fukushima Daini Nuclear Power Station
Date,Time,MP-1(microSv/h),MP-2(microSv/h),MP-3(microSv/h),MP-4(microSv/h),MP-5(microSv/h),MP-6(microSv/h),MP-7(microSv/h),Wind Direction,Wind Velocity(m/s),Rain
2022/09/19,00:00,0.151,0.139,0.223,0.213,0.212,0.121,0.077,south,8.6,Yes
2022/09/19,00:10,0.151,0.139,0.219,0.213,0.209,0.121,0.077,south,7.7,Yes
2022/09/19,00:20,0.151,0.141,0.221,0.211,0.214,0.120,0.077,south,6.7,Yes
2022/09/19,00:30,0.150,0.140,0.222,0.212,0.213,0.121,0.077,south,6.9,Yes
2022/09/19,00:40,0.151,0.139,0.221,0.213,0.211,0.121,0.077,south,8.1,Yes
2022/09/19,00:50,0.153,0.140,0.219,0.213,0.211,0.120,0.076,south-southeast,7.8,Yes
2022/09/19,01:00,0.151,0.141,0.221,0.211,0.214,0.120,0.077,south,7.7,Yes
2022/09/19,01:10,0.149,0.140,0.222,0.212,0.212,0.122,0.078,south-southeast,8.2,Yes
2022/09/19,01:20,0.152,0.139,0.220,0.214,0.212,0.121,0.077,south-southeast,8.4,Yes
2022/09/19,01:30,0.151,0.141,0.220,0.212,0.212,0.121,0.076,south-southeast,8.6,Yes
2022/09/19,01:40,0.151,0.140,0.223,0.210,0.215,0.121,0.076,south-southeast,10.1,Yes
2022/09/19,01:50,0.149,0.139,0.219,0.211,0.211,0.120,0.077,south,8.8,Yes
2022/09/19,02:00,0.152,0.139,0.217,0.212,0.209,0.122,0.077,south,8.2,Yes
2022/09/19,02:10,0.152,0.140,0.219,0.210,0.211,0.120,0.078,south,7.7,Yes
2022/09/19,02:20,0.150,0.141,0.221,0.210,0.214,0.120,0.076,south,7.2,No
2022/09/19,02:30,0.150,0.138,0.219,0.212,0.212,0.121,0.077,south,7.8,No
2022/09/19,02:40,0.152,0.139,0.218,0.211,0.209,0.122,0.077,south-southeast,7.3,No
2022/09/19,02:50,0.150,0.141,0.220,0.211,0.212,0.120,0.076,south-southeast,9.2,Yes
2022/09/19,03:00,0.149,0.139,0.219,0.210,0.214,0.121,0.077,south-southeast,8.7,No
2022/09/19,03:10,0.149,0.138,0.218,0.212,0.210,0.121,0.076,south,8.1,No
2022/09/19,03:20,0.151,0.139,0.217,0.210,0.209,0.120,0.077,south-southeast,9.3,Yes
2022/09/19,03:30,0.151,0.141,0.221,0.209,0.211,0.120,0.076,south-southeast,9.8,Yes
2022/09/19,03:40,0.149,0.139,0.220,0.210,0.213,0.120,0.077,south-southeast,8.9,Yes
2022/09/19,03:50,0.150,0.139,0.217,0.213,0.211,0.120,0.078,south,8.9,Yes
2022/09/19,04:00,0.152,0.139,0.219,0.210,0.210,0.121,0.077,south,9.8,No
2022/09/19,04:10,0.151,0.140,0.221,0.209,0.212,0.120,0.076,south-southeast,8.2,Yes
2022/09/19,04:20,0.150,0.139,0.219,0.211,0.214,0.120,0.077,south,10.4,Yes
2022/09/19,04:30,0.150,0.139,0.217,0.213,0.211,0.120,0.076,south,9.0,No
2022/09/19,04:40,0.151,0.140,0.220,0.211,0.210,0.120,0.077,south,9.8,Yes
2022/09/19,04:50,0.150,0.140,0.221,0.210,0.212,0.121,0.076,south,10.1,Yes
2022/09/19,05:00,0.149,0.139,0.218,0.211,0.213,0.120,0.076,south,8.7,Yes
2022/09/19,05:10,0.150,0.139,0.218,0.212,0.212,0.121,0.076,south,8.2,Yes
2022/09/19,05:20,0.153,0.141,0.221,0.209,0.210,0.121,0.076,south,7.8,Yes
2022/09/19,05:30,0.150,0.140,0.219,0.209,0.212,0.121,0.078,south,7.8,Yes
2022/09/19,05:40,0.149,0.139,0.217,0.211,0.212,0.120,0.077,south,8.1,Yes
2022/09/19,05:50,0.150,0.139,0.218,0.212,0.212,0.120,0.076,south,7.1,Yes
2022/09/19,06:00,0.151,0.141,0.220,0.210,0.211,0.120,0.076,south,8.2,Yes
2022/09/19,06:10,0.149,0.139,0.218,0.208,0.213,0.121,0.076,south,8.3,Yes
2022/09/19,06:20,0.149,0.139,0.217,0.212,0.213,0.120,0.078,south,7.8,Yes
2022/09/19,06:30,0.150,0.139,0.219,0.210,0.211,0.121,0.076,south,7.9,Yes
2022/09/19,06:40,0.151,0.140,0.219,0.209,0.209,0.120,0.076,south,10.0,Yes
2022/09/19,06:50,0.149,0.139,0.216,0.209,0.211,0.121,0.078,south-southeast,9.2,Yes
2022/09/19,07:00,0.148,0.138,0.217,0.210,0.211,0.121,0.076,south,9.5,Yes
2022/09/19,07:10,0.151,0.139,0.219,0.210,0.210,0.120,0.076,south,9.5,Yes
2022/09/19,07:20,0.150,0.140,0.217,0.208,0.208,0.120,0.077,south,8.9,Yes
2022/09/19,07:30,0.150,0.138,0.215,0.210,0.213,0.121,0.077,south,7.9,Yes
2022/09/19,07:40,0.148,0.137,0.217,0.210,0.213,0.121,0.077,south-southeast,7.3,Yes
2022/09/19,07:50,0.151,0.139,0.219,0.208,0.210,0.120,0.076,south-southeast,7.7,Yes
2022/09/19,08:00,0.150,0.139,0.217,0.208,0.209,0.120,0.076,south,8.5,Yes
2022/09/19,08:10,0.148,0.138,0.216,0.210,0.212,0.120,0.077,south,7.5,Yes
2022/09/19,08:20,0.149,0.139,0.217,0.210,0.212,0.120,0.076,south,8.7,Yes
2022/09/19,08:30,0.151,0.139,0.217,0.209,0.211,0.119,0.076,south,8.2,Yes
2022/09/19,08:40,0.150,0.138,0.217,0.208,0.210,0.120,0.077,south,8.1,Yes
2022/09/19,08:50,0.149,0.138,0.214,0.208,0.210,0.120,0.076,south,8.1,Yes
2022/09/19,09:00,0.148,0.138,0.216,0.212,0.213,0.120,0.076,south-southeast,8.7,Yes
2022/09/19,09:10,0.150,0.140,0.218,0.209,0.212,0.120,0.076,south-southeast,8.9,Yes
2022/09/19,09:20,0.151,0.138,0.217,0.207,0.208,0.120,0.075,south-southeast,10.4,Yes
2022/09/19,09:30,0.148,0.138,0.216,0.207,0.209,0.119,0.076,south-southeast,9.8,Yes
2022/09/19,09:40,0.149,0.138,0.216,0.210,0.208,0.120,0.077,south-southeast,8.8,Yes
2022/09/19,09:50,0.149,0.137,0.215,0.211,0.212,0.120,0.076,south-southeast,10.3,Yes
2022/09/19,10:00,0.147,0.137,0.218,0.209,0.212,0.120,0.076,south-southeast,10.6,Yes
2022/09/19,10:10,0.150,0.139,0.217,0.209,0.211,0.120,0.076,south-southeast,10.7,Yes
2022/09/19,10:20,0.151,0.140,0.216,0.208,0.209,0.120,0.076,south-southeast,9.2,Yes
2022/09/19,10:30,0.150,0.138,0.215,0.210,0.208,0.120,0.076,south-southeast,9.5,Yes
2022/09/19,10:40,0.148,0.138,0.214,0.211,0.209,0.121,0.077,south-southeast,10.6,No
2022/09/19,10:50,0.149,0.138,0.215,0.209,0.209,0.120,0.077,south-southeast,10.9,Yes
2022/09/19,11:00,0.148,0.137,0.215,0.209,0.208,0.119,0.076,south-southeast,11.7,Yes
2022/09/19,11:10,0.149,0.138,0.215,0.209,0.209,0.120,0.076,south-southeast,10.4,Yes
2022/09/19,11:20,0.148,0.138,0.216,0.209,0.209,0.120,0.076,south-southeast,9.6,Yes
2022/09/19,11:30,0.149,0.138,0.216,0.207,0.210,0.120,0.076,south-southeast,10.0,No
2022/09/19,11:40,0.149,0.138,0.217,0.208,0.209,0.119,0.076,south-southeast,9.5,No
2022/09/19,11:50,0.147,0.137,0.217,0.208,0.210,0.120,0.076,south-southeast,10.1,Yes
2022/09/19,12:00,0.148,0.138,0.217,0.208,0.210,0.121,0.076,south-southeast,12.2,Yes
2022/09/19,12:10,0.148,0.138,0.216,0.208,0.210,0.120,0.075,south-southeast,9.8,No
2022/09/19,12:20,0.147,0.138,0.216,0.209,0.211,0.121,0.076,south-southeast,9.5,No
2022/09/19,12:30,0.148,0.138,0.217,0.209,0.211,0.120,0.075,south-southeast,10.1,No
2022/09/19,12:40,0.148,0.138,0.218,0.209,0.211,0.121,0.075,south-southeast,12.0,No
2022/09/19,12:50,0.149,0.138,0.216,0.210,0.211,0.120,0.075,south,12.2,No
2022/09/19,13:00,0.149,0.138,0.216,0.208,0.211,0.120,0.075,south-southeast,11.2,Yes
2022/09/19,13:10,0.149,0.138,0.217,0.209,0.209,0.121,0.076,south-southeast,12.3,No
2022/09/19,13:20,0.151,0.139,0.216,0.213,0.211,0.121,0.076,south,12.6,No
2022/09/19,13:30,0.152,0.140,0.218,0.212,0.213,0.121,0.076,south-southeast,11.8,No
2022/09/19,13:40,0.150,0.139,0.221,0.210,0.214,0.120,0.076,south,11.7,No
2022/09/19,13:50,0.150,0.139,0.220,0.210,0.213,0.121,0.076,south-southeast,12.6,No
2022/09/19,14:00,0.149,0.138,0.219,0.210,0.211,0.120,0.075,south-southeast,11.8,No
2022/09/19,14:10,0.149,0.137,0.218,0.208,0.210,0.121,0.076,south,12.6,No
2022/09/19,14:20,0.150,0.138,0.217,0.212,0.210,0.121,0.077,south,14.0,No
2022/09/19,14:30,0.151,0.139,0.216,0.212,0.210,0.121,0.076,south,12.4,No
2022/09/19,14:40,0.151,0.141,0.217,0.210,0.212,0.120,0.076,south-southeast,14.3,No
2022/09/19,14:50,0.149,0.139,0.221,0.209,0.214,0.121,0.076,south-southeast,14.0,No
2022/09/19,15:00,0.149,0.139,0.220,0.209,0.212,0.121,0.076,south-southeast,13.7,Yes
2022/09/19,15:10,0.149,0.139,0.219,0.210,0.212,0.121,0.076,south,13.4,No
2022/09/19,15:20,0.151,0.139,0.218,0.213,0.209,0.122,0.077,south,13.1,No
2022/09/19,15:30,0.149,0.140,0.216,0.211,0.210,0.121,0.076,south-southeast,12.8,No
2022/09/19,15:40,0.149,0.139,0.219,0.208,0.214,0.121,0.075,south-southeast,12.0,Yes
2022/09/19,15:50,0.149,0.139,0.221,0.208,0.214,0.121,0.076,south,11.2,Yes
2022/09/19,16:00,0.148,0.138,0.215,0.209,0.210,0.120,0.075,south-southeast,9.5,Yes
2022/09/19,16:10,0.149,0.137,0.212,0.208,0.207,0.119,0.076,south,10.1,Yes
2022/09/19,16:20,0.149,0.138,0.214,0.206,0.211,0.119,0.076,south,11.2,Yes
2022/09/19,16:30,0.148,0.137,0.216,0.205,0.210,0.119,0.077,south-southeast,11.2,Yes
2022/09/19,16:40,0.149,0.137,0.212,0.207,0.208,0.119,0.077,south,9.8,Yes
2022/09/19,16:50,0.150,0.139,0.214,0.207,0.209,0.120,0.076,south,7.0,Yes
2022/09/19,17:00,0.147,0.139,0.217,0.205,0.213,0.119,0.077,south,7.3,Yes
2022/09/19,17:10,0.148,0.137,0.214,0.207,0.211,0.118,0.077,south,7.5,No
2022/09/19,17:20,0.149,0.138,0.212,0.205,0.207,0.118,0.076,southeast,4.9,Yes
2022/09/19,17:30,0.148,0.138,0.213,0.204,0.210,0.117,0.076,south-southeast,7.2,Yes
2022/09/19,17:40,0.147,0.138,0.214,0.204,0.211,0.117,0.077,south,9.5,Yes
2022/09/19,17:50,0.147,0.138,0.213,0.206,0.209,0.117,0.077,south-southeast,9.8,Yes
2022/09/19,18:00,0.149,0.139,0.214,0.207,0.208,0.118,0.076,south,9.0,No
2022/09/19,18:10,0.147,0.138,0.215,0.205,0.211,0.118,0.077,south,9.8,Yes
2022/09/19,18:20,0.145,0.138,0.214,0.207,0.211,0.117,0.076,south,10.6,Yes
2022/09/19,18:30,0.149,0.138,0.212,0.207,0.207,0.117,0.077,south,9.5,Yes
2022/09/19,18:40,0.147,0.137,0.214,0.205,0.209,0.117,0.077,south,9.5,Yes
2022/09/19,18:50,0.146,0.138,0.212,0.204,0.211,0.117,0.077,south,9.3,Yes
2022/09/19,19:00,0.147,0.138,0.213,0.206,0.209,0.117,0.076,south-southeast,9.5,Yes
2022/09/19,19:10,0.147,0.138,0.214,0.205,0.209,0.117,0.076,south-southeast,10.7,No
2022/09/19,19:20,0.147,0.137,0.213,0.205,0.211,0.117,0.077,south,10.4,No
2022/09/19,19:30,0.146,0.137,0.214,0.207,0.209,0.116,0.076,south,9.2,Yes
2022/09/19,19:40,0.147,0.137,0.214,0.205,0.209,0.117,0.076,south,10.6,No
2022/09/19,19:50,0.147,0.137,0.213,0.204,0.212,0.116,0.076,south,8.1,No
2022/09/19,20:00,0.145,0.137,0.213,0.207,0.210,0.116,0.075,south,8.6,Yes
2022/09/19,20:10,0.148,0.138,0.215,0.205,0.208,0.116,0.076,south,9.8,Yes
2022/09/19,20:20,0.148,0.137,0.213,0.205,0.211,0.117,0.076,south-southwest,10.4,Yes
2022/09/19,20:30,0.146,0.136,0.213,0.208,0.211,0.117,0.075,south-southwest,7.8,Yes
2022/09/19,20:40,0.147,0.137,0.216,0.206,0.209,0.116,0.075,south,10.1,Yes
2022/09/19,20:50,0.147,0.136,0.214,0.205,0.210,0.117,0.076,south,7.9,Yes
2022/09/19,21:00,0.147,0.135,0.213,0.207,0.212,0.116,0.075,south,10.6,Yes
2022/09/19,21:10,0.146,0.138,0.216,0.207,0.209,0.117,0.075,south,11.8,Yes
2022/09/19,21:20,0.147,0.138,0.215,0.205,0.208,0.116,0.075,south,10.4,Yes
2022/09/19,21:30,0.147,0.136,0.212,0.207,0.211,0.117,0.076,south,9.8,Yes
2022/09/19,21:40,0.147,0.137,0.216,0.208,0.211,0.117,0.075,south,9.8,Yes
2022/09/19,21:50,0.146,0.138,0.215,0.205,0.208,0.117,0.075,south,8.5,Yes
2022/09/19,22:00,0.148,0.137,0.213,0.204,0.208,0.117,0.075,south,9.5,Yes
2022/09/19,22:10,0.147,0.136,0.212,0.207,0.211,0.118,0.076,south,13.6,Yes
2022/09/19,22:20,0.146,0.138,0.214,0.208,0.210,0.118,0.075,south,13.6,Yes
2022/09/19,22:30,0.146,0.137,0.214,0.205,0.207,0.117,0.075,south-southeast,14.3,Yes
2022/09/19,22:40,0.148,0.136,0.212,0.204,0.208,0.116,0.076,south,13.9,Yes
2022/09/19,22:50,0.148,0.136,0.215,0.207,0.212,0.118,0.076,south,11.4,Yes
2022/09/19,23:00,0.147,0.138,0.214,0.207,0.209,0.117,0.075,south,13.1,Yes
2022/09/19,23:10,0.146,0.138,0.213,0.205,0.207,0.117,0.075,south,11.5,Yes
2022/09/19,23:20,0.147,0.137,0.212,0.206,0.209,0.117,0.076,south,11.8,Yes
2022/09/19,23:30,0.146,0.136,0.215,0.206,0.211,0.118,0.076,south,10.9,Yes
2022/09/19,23:40,0.146,0.137,0.215,0.205,0.209,0.117,0.076,south,9.8,Yes
2022/09/19,23:50,0.147,0.138,0.212,0.205,0.207,0.117,0.075,south-southeast,9.8,Yes
